Weather in Massa

Italy     44°02′06″N   10°08′22″E
temp.,
°C
wind,
m/s
gust,
m/s
humid.,
%
clouds,
%
prec.,
mm/h
press.,
hPa
HPBL,
m
11 may, tue
tue1123:00+15ene22636 0.0 101544
02:00+14nne225887 0.0 101516
05:00+13ene2260100 0.0 101332
08:00+12ese3588100 1.8 1013188
11:00+12e3593100 6.8 1013265
14:00+13e3693100 10.7 1010300
17:00+12wsw3499100 24.4 1010285
20:00+11w1197100 31.2 1010133
12 may, wed
wed1223:00+11sse0195100 0.3 101047
02:00+11sw3596100 2.7 1009375
05:00+11s239699 3.8 1008266
08:00+10se239593 4.4 1009308
11:00+11ene239486 0.3 1009481
14:00+12wsw2395100 1.4 1009384
17:00+11sw3494100 0.6 1010449
20:00+10wsw3589100 0.8 1010376
13 may, thu
thu1323:00+10wsw359373 1.1 1010369
02:00+11wsw469498 3.7 1009420
05:00+10s3594100 2.1 1007402
08:00+11s479698 3.4 1006615
11:00+11ssw3595100 2.6 1007484
14:00+12sse2490100 3.4 1007621
17:00+11sw3494100 1.1 1006435
20:00+10s239385 1.5 1007309
14 may, fri
fri1423:00+10s2495100 0.2 1008280
02:00+11s359495 0.9 1008340
05:00+10ese129663 0.7 1008123
08:00+11sw249386 2.2 1009352
11:00+11ssw359092 2.5 1012639
14:00+12sw239096 4.1 1011421
17:00+10wnw2395100 3.0 1011148
20:00+10nne1292100 7.4 101070
15 may, sat
sat1523:00+10ne228737 0.6 101031
02:00+9nne22878 0.6 100939
05:00+8ne228840 0.0 100932
08:00+11ne11816 0.0 1009113
11:00+15wsw226325 0.1 10091014
14:00+15wsw337672 1.4 1010833
17:00+15w337754 1.9 1010754
20:00+12wsw239265 2.5 1012306